Overview Statistics Trail Chart Weather Telemetry Raw packets
 

This is the latest recevied weather packets stored in our database for station/object WA6ODQ-13. If no packets are shown the sender has not sent any weather packets the latest 10 day(s).

<< 63 64 65 66 67 68 69 >>
Time Temp. Humidity Pressure Rain* Wind** Luminosity Snow
1788231283 17.22° C 75% 1008.8 hPa 0 mm - 0 W/m² -
1788230982 17.78° C 75% 1008.8 hPa 0 mm - 1 W/m² -
1788230678 17.78° C 74% 1008.9 hPa 0 mm - 2 W/m² -
1788230376 17.78° C 74% 1009 hPa 0 mm - 3 W/m² -
1788230071 17.78° C 73% 1008.8 hPa 0 mm - 6 W/m² -
1788229766 18.33° C 72% 1008.9 hPa 0 mm - 9 W/m² -
1788229462 18.33° C 71% 1008.8 hPa 0 mm - 14 W/m² -
1788229156 18.33° C 70% 1008.8 hPa 0 mm - 19 W/m² -
1788228852 18.33° C 70% 1008.9 hPa 0 mm - 24 W/m² -
1788228547 18.89° C 70% 1008.8 hPa 0 mm - 26 W/m² -
1788228237 18.89° C 69% 1009 hPa 0 mm - 26 W/m² -
1788227936 18.89° C 69% 1008.6 hPa 0 mm - 28 W/m² -
1788227633 19.44° C 67% 1008.7 hPa 0 mm - 31 W/m² -
1788227331 19.44° C 67% 1009 hPa 0 mm - 38 W/m² -
1788227028 20° C 65% 1008.9 hPa 0 mm - 47 W/m² -
1788226723 20° C 65% 1008.9 hPa 0 mm - 51 W/m² -
1788226419 20° C 64% 1008.6 hPa 0 mm - 61 W/m² -
1788226115 20° C 64% 1008.7 hPa 0 mm - 67 W/m² -
1788225809 21.11° C 62% 1008.7 hPa 0 mm - 80 W/m² -
1788225505 21.11° C 62% 1008.8 hPa 0 mm - 109 W/m² -
1788225200 20.56° C 63% 1008.6 hPa 0 mm - 90 W/m² -
1788224893 21.11° C 62% 1008.7 hPa 0 mm - 102 W/m² -
1788224588 21.11° C 61% 1008.6 hPa 0 mm - 132 W/m² -
1788224287 21.11° C 61% 1008.8 hPa 0 mm - 146 W/m² -
1788223983 21.67° C 60% 1008.8 hPa 0 mm - 159 W/m² -

* Rain latest hour (hover to see other rain measurements)
** Current wind speed in m/s (hover to see current wind gust speed)